Tacoma Narrows, WA
on Saturday, December 22, 2012

Saturday
Previous Day Next Day
Daily Summary
 ActualAverageRecord
Temperature
Mean Temperature °F °F  
Max Temperature 46°F 43°F 54°F (2005)
Min Temperature 39°F 36°F 28°F (2008)
Degree Days
Heating Degree Days 22    
Moisture
Dew Point 37°F   
Average Humidity 81    
Maximum Humidity 93    
Minimum Humidity 63    
Precipitation
Precipitation 0.09 in in in ()
Wind
Wind Speed 6 mph   
Max Wind Speed 25 mph   
Max Gust Speed 34 mph   
Visibility 9 miles   
Events Rain   
Averages and records for this station are not official NWS values.
Key: T is trace of precipitation, MM is missing value
Source: NWS Daily Summary
Seasonal Weather Averages
Time(PST)TemperatureDew PointHumidity Pressure Visibility Wind DirectionWind SpeedGust SpeedPrecipitationEvents Conditions
12:53 AM 42.1°F 35.1°F 76% 29.63 in 10.0 miles ENE 6.9 mph - 0.00 in   Overcast
1:53 AM 42.1°F 36.0°F 79% 29.62 in 10.0 miles NNE 5.8 mph - N/A   Partly Cloudy
2:53 AM 42.1°F 36.0°F 79% 29.60 in 10.0 miles Variable 3.5 mph - N/A   Overcast
3:53 AM 39.9°F 36.0°F 86% 29.57 in 10.0 miles Calm Calm - 0.00 in   Overcast
4:53 AM 41.0°F 36.0°F 82% 29.54 in 10.0 miles NNW 3.5 mph - N/A   Mostly Cloudy
5:53 AM 39.9°F 37.0°F 89% 29.53 in 10.0 miles Calm Calm - N/A   Overcast
6:53 AM 39.9°F 37.0°F 89% 29.51 in 10.0 miles Calm Calm - 0.00 in Rain Light Rain
7:53 AM 39.9°F 37.9°F 93% 29.50 in 10.0 miles Calm Calm - 0.01 in Rain Light Rain
7:57 AM 39.2°F 37.4°F 93% 29.49 in 10.0 miles NNW 3.5 mph - 0.01 in Rain Light Rain
8:53 AM 41.0°F 37.9°F 89% 29.52 in 4.0 miles Calm Calm - 0.02 in Rain Light Rain
9:32 AM 41.0°F 39.2°F 93% 29.53 in 4.0 miles Calm Calm - 0.01 in Rain Light Rain
9:53 AM 41.0°F 39.0°F 93% 29.54 in 4.0 miles Calm Calm - 0.01 in   Overcast
10:17 AM 41.0°F 39.2°F 93% 29.53 in 8.0 miles Calm Calm - N/A   Mostly Cloudy
10:36 AM 42.8°F 39.2°F 87% 29.54 in 8.0 miles WSW 4.6 mph - N/A   Mostly Cloudy
10:53 AM 42.1°F 39.0°F 89% 29.55 in 9.0 miles West 3.5 mph - N/A   Mostly Cloudy
11:00 AM 42.8°F 39.2°F 87% 29.54 in 9.0 miles WSW 3.5 mph - N/A   Mostly Cloudy
11:53 AM 45.0°F 37.9°F 76% 29.55 in 10.0 miles SSW 6.9 mph - N/A   Scattered Clouds
12:53 PM 46.0°F 37.0°F 71% 29.54 in 10.0 miles South 6.9 mph - N/A   Overcast
1:53 PM 46.9°F 35.1°F 63% 29.54 in 10.0 miles South 23.0 mph 31.1 mph N/A   Overcast
2:53 PM 46.9°F 35.1°F 63% 29.55 in 10.0 miles South 25.3 mph 32.2 mph N/A   Scattered Clouds
3:53 PM 45.0°F 35.1°F 68% 29.59 in 10.0 miles South 24.2 mph 34.5 mph 0.01 in Rain Light Rain
4:53 PM 43.0°F 36.0°F 76% 29.62 in 10.0 miles South 16.1 mph 25.3 mph 0.02 in   Mostly Cloudy
5:53 PM 43.0°F 35.1°F 74% 29.65 in 10.0 miles South 12.7 mph - N/A   Mostly Cloudy
6:53 PM 43.0°F 35.1°F 74% 29.67 in 10.0 miles South 13.8 mph - 0.00 in Rain Light Rain
7:53 PM 43.0°F 36.0°F 76% 29.69 in 10.0 miles SSW 10.4 mph - 0.01 in   Overcast
8:53 PM 43.0°F 36.0°F 76% 29.71 in 10.0 miles SSE 5.8 mph - 0.01 in Rain Light Rain
9:53 PM 41.0°F 36.0°F 82% 29.72 in 10.0 miles SSW 5.8 mph - 0.00 in   Overcast
10:32 PM 41.0°F 35.6°F 81% 29.72 in 10.0 miles SSW 5.8 mph - N/A   Mostly Cloudy
10:53 PM 41.0°F 36.0°F 82% 29.73 in 10.0 miles SSE 4.6 mph - N/A   Overcast
11:53 PM 41.0°F 35.1°F 79% 29.75 in 10.0 miles South 8.1 mph - N/A   Partly Cloudy
Moon Phase
Dec. 22 Dec. 28 Jan. 04 Jan. 11 Jan. 18
Sunrise:07:55 AM (PST) Moon Rise:12:55 PM (PST)12/22
Sunset:04:23 PM (PST) Moon Set:02:33 AM (PST)12/22

Copyright © 2014 The Weather Underground, Inc.